Hourly Weather Dadunqiu

Today, 19 May, Wednesday

Time Temperature Precipitation Wind Pressure Humidity
00:00 +25°C° 0 mm 3 mps 752 mmHg 25%
01:00 +23°C° 0 mm 4 mps 752 mmHg 27%
02:00 +23°C° 0 mm 4 mps 752 mmHg 29%
03:00 +22°C° 0 mm 4 mps 752 mmHg 32%
04:00 +21°C° 0 mm 3 mps 752 mmHg 35%
05:00 +20°C° 0 mm 3 mps 752 mmHg 39%
06:00 +22°C° 0 mm 3 mps 752 mmHg 37%
07:00 +25°C° 0 mm 4 mps 753 mmHg 36%
08:00 +26°C° 0 mm 4 mps 753 mmHg 34%
09:00 +29°C° 0 mm 4 mps 753 mmHg 30%
10:00 +32°C° 0 mm 5 mps 753 mmHg 25%
11:00 +34°C° 0 mm 5 mps 753 mmHg 21%
12:00 +35°C° 0 mm 6 mps 752 mmHg 19%
13:00 +36°C° 0 mm 6 mps 752 mmHg 17%
14:00 +39°C° 0 mm 7 mps 751 mmHg 15%
15:00 +38°C° 0 mm 7 mps 751 mmHg 16%
16:00 +36°C° 0 mm 7 mps 751 mmHg 17%
17:00 +37°C° 0 mm 8 mps 750 mmHg 17%
18:00 +34°C° 0 mm 7 mps 751 mmHg 20%
19:00 +32°C° 0 mm 6 mps 751 mmHg 23%
20:00 +29°C° 0 mm 5 mps 752 mmHg 26%
21:00 +28°C° 0 mm 4 mps 752 mmHg 28%
22:00 +27°C° 0 mm 4 mps 752 mmHg 31%
23:00 +26°C° 0 mm 3 mps 753 mmHg 33%

Tomorrow, 20 May, Thursday

Time Temperature Precipitation Wind Pressure Humidity
00:00 +26°C° 0 mm 3 mps 752 mmHg 36%
01:00 +25°C° 0 mm 2 mps 752 mmHg 39%
02:00 +24°C° 0 mm 2 mps 752 mmHg 42%
03:00 +24°C° 0 mm 2 mps 752 mmHg 45%
04:00 +23°C° 0 mm 2 mps 752 mmHg 47%
05:00 +23°C° 0 mm 2 mps 752 mmHg 49%
06:00 +24°C° 0 mm 3 mps 752 mmHg 49%
07:00 +25°C° 0 mm 3 mps 753 mmHg 50%
08:00 +26°C° 0 mm 3 mps 753 mmHg 50%
09:00 +28°C° 0 mm 3 mps 753 mmHg 47%
10:00 +29°C° 0 mm 3 mps 753 mmHg 43%
11:00 +30°C° 0 mm 3 mps 753 mmHg 40%
12:00 +30°C° 0.1 mm 4 mps 752 mmHg 36%
13:00 +32°C° 0.1 mm 4 mps 752 mmHg 33%
14:00 +32°C° 0.1 mm 5 mps 751 mmHg 30%
15:00 +32°C° 0.1 mm 5 mps 751 mmHg 31%
16:00 +30°C° 0.1 mm 5 mps 751 mmHg 33%
17:00 +29°C° 0.1 mm 5 mps 751 mmHg 35%
18:00 +27°C° 0.2 mm 5 mps 752 mmHg 47%
19:00 +23°C° 0.2 mm 5 mps 752 mmHg 60%
20:00 +21°C° 0.2 mm 4 mps 753 mmHg 73%
21:00 +20°C° 0 mm 3 mps 753 mmHg 75%
22:00 +20°C° 0 mm 3 mps 754 mmHg 76%
23:00 +19°C° 0 mm 2 mps 754 mmHg 78%

Day after tomorrow, 21 May, Friday

Time Temperature Precipitation Wind Pressure Humidity
00:00 +19°C° 0 mm 2 mps 754 mmHg 80%
01:00 +20°C° 0 mm 1 mps 754 mmHg 81%
02:00 +19°C° 0 mm 1 mps 753 mmHg 83%
03:00 +19°C° 0 mm 1 mps 753 mmHg 84%
04:00 +19°C° 0 mm 1 mps 753 mmHg 85%
05:00 +18°C° 0 mm 1 mps 753 mmHg 85%
06:00 +20°C° 0 mm 1 mps 753 mmHg 77%
07:00 +22°C° 0 mm 1 mps 754 mmHg 69%
08:00 +22°C° 0 mm 0 mps 754 mmHg 61%
09:00 +25°C° 0 mm 1 mps 754 mmHg 55%
10:00 +27°C° 0 mm 2 mps 753 mmHg 49%
11:00 +29°C° 0 mm 3 mps 753 mmHg 43%
12:00 +30°C° 0 mm 3 mps 753 mmHg 39%
13:00 +32°C° 0 mm 4 mps 752 mmHg 36%
14:00 +33°C° 0 mm 4 mps 751 mmHg 32%
15:00 +33°C° 0 mm 4 mps 751 mmHg 33%
16:00 +33°C° 0 mm 5 mps 751 mmHg 33%
17:00 +33°C° 0 mm 5 mps 751 mmHg 34%
18:00 +30°C° 0 mm 5 mps 751 mmHg 39%
19:00 +28°C° 0 mm 4 mps 752 mmHg 44%
20:00 +26°C° 0 mm 4 mps 752 mmHg 49%
21:00 +26°C° 0 mm 4 mps 752 mmHg 50%
22:00 +25°C° 0 mm 4 mps 752 mmHg 52%
23:00 +23°C° 0 mm 4 mps 752 mmHg 53%

22 May, Saturday

Time Temperature Precipitation Wind Pressure Humidity
00:00 +24°C° 0 mm 3 mps 752 mmHg 55%
01:00 +24°C° 0 mm 3 mps 752 mmHg 56%
02:00 +23°C° 0 mm 2 mps 752 mmHg 58%
03:00 +23°C° 0 mm 2 mps 752 mmHg 59%
04:00 +23°C° 0 mm 2 mps 752 mmHg 60%
05:00 +21°C° 0 mm 2 mps 753 mmHg 61%
06:00 +24°C° 0 mm 2 mps 753 mmHg 57%
07:00 +26°C° 0 mm 1 mps 753 mmHg 52%
08:00 +28°C° 0 mm 1 mps 753 mmHg 48%
09:00 +30°C° 0 mm 2 mps 753 mmHg 44%
10:00 +33°C° 0 mm 3 mps 752 mmHg 39%
11:00 +35°C° 0 mm 4 mps 752 mmHg 35%
12:00 +36°C° 0 mm 4 mps 751 mmHg 32%
13:00 +37°C° 0 mm 4 mps 751 mmHg 29%
14:00 +38°C° 0 mm 4 mps 750 mmHg 26%
15:00 +40°C° 0 mm 5 mps 749 mmHg 23%
16:00 +40°C° 0 mm 5 mps 749 mmHg 21%
17:00 +40°C° 0 mm 6 mps 749 mmHg 18%
18:00 +37°C° 0 mm 5 mps 749 mmHg 23%
19:00 +34°C° 0 mm 4 mps 750 mmHg 28%
20:00 +30°C° 0 mm 4 mps 750 mmHg 33%
21:00 +29°C° 0 mm 3 mps 751 mmHg 38%
22:00 +27°C° 0 mm 3 mps 751 mmHg 43%
23:00 +26°C° 0 mm 3 mps 751 mmHg 48%

23 May, Sunday

Time Temperature Precipitation Wind Pressure Humidity
00:00 +26°C° 0 mm 2 mps 751 mmHg 47%
01:00 +26°C° 0 mm 2 mps 751 mmHg 46%
02:00 +26°C° 0 mm 2 mps 751 mmHg 45%
03:00 +25°C° 0 mm 2 mps 751 mmHg 45%
04:00 +25°C° 0 mm 3 mps 751 mmHg 44%
05:00 +25°C° 0 mm 3 mps 751 mmHg 43%
06:00 +27°C° 0 mm 3 mps 751 mmHg 40%
07:00 +28°C° 0 mm 4 mps 752 mmHg 36%
08:00 +30°C° 0 mm 4 mps 752 mmHg 33%
09:00 +32°C° 0 mm 4 mps 752 mmHg 31%
10:00 +33°C° 0 mm 3 mps 753 mmHg 29%
11:00 +34°C° 0 mm 3 mps 753 mmHg 27%
12:00 +34°C° 0 mm 3 mps 753 mmHg 24%
13:00 +35°C° 0 mm 3 mps 752 mmHg 22%
14:00 +35°C° 0 mm 4 mps 752 mmHg 20%
15:00 +34°C° 0 mm 4 mps 752 mmHg 26%
16:00 +32°C° 0 mm 4 mps 753 mmHg 32%
17:00 +29°C° 0 mm 4 mps 753 mmHg 38%
18:00 +28°C° 0 mm 4 mps 754 mmHg 44%
19:00 +26°C° 0 mm 3 mps 754 mmHg 50%
20:00 +25°C° 0 mm 3 mps 755 mmHg 57%
21:00 +24°C° 0.1 mm 3 mps 755 mmHg 62%
22:00 +21°C° 0.1 mm 3 mps 756 mmHg 67%
23:00 +20°C° 0.1 mm 3 mps 757 mmHg 72%

24 May, Monday

Time Temperature Precipitation Wind Pressure Humidity
00:00 +19°C° 0 mm 3 mps 757 mmHg 76%
01:00 +19°C° 0 mm 2 mps 757 mmHg 79%
02:00 +19°C° 0 mm 1 mps 758 mmHg 82%
03:00 +17°C° 0 mm 2 mps 758 mmHg 80%
04:00 +17°C° 0 mm 2 mps 758 mmHg 78%
05:00 +16°C° 0 mm 2 mps 758 mmHg 75%
06:00 +19°C° 0 mm 3 mps 758 mmHg 56%
07:00 +22°C° 0 mm 3 mps 758 mmHg 36%
08:00 +25°C° 0 mm 3 mps 758 mmHg 16%
09:00 +27°C° 0 mm 2 mps 758 mmHg 13%
10:00 +28°C° 0 mm 2 mps 757 mmHg 11%
11:00 +30°C° 0 mm 1 mps 757 mmHg 8%
12:00 +31°C° 0 mm 2 mps 756 mmHg 8%
13:00 +31°C° 0 mm 2 mps 756 mmHg 8%
14:00 +33°C° 0 mm 3 mps 755 mmHg 8%
15:00 +33°C° 0 mm 3 mps 754 mmHg 9%
16:00 +33°C° 0 mm 4 mps 754 mmHg 9%
17:00 +33°C° 0 mm 4 mps 753 mmHg 10%
18:00 +29°C° 0 mm 4 mps 753 mmHg 17%
19:00 +27°C° 0 mm 5 mps 753 mmHg 24%
20:00 +25°C° 0 mm 5 mps 753 mmHg 31%
21:00 +25°C° 0 mm 5 mps 753 mmHg 35%
22:00 +23°C° 0 mm 5 mps 753 mmHg 39%
23:00 +23°C° 0 mm 5 mps 753 mmHg 43%
Show more

We Need Your Consent

Meteoprog and our Service Providers may store and access personal data such as cookies, device identifiers or other similar technologies on your device and process such data to personalise content and ads, as well as provide social media features and to analyse the traffic.

  • Store and/or access information on your device

    Cookies, device identifiers or other information can be stored or accessed on your device for the purposes indicated above.

  • Personalised ads and content, ad and content measurement, audience insights, and products development

    Ads and content can be personalised based on a profile. More data can be added to better personalise ads and content. Ad and content performance can be measured. Insights about the audience who saw the ads and content can be derived. Such data can be used to develop or improve user’s experience, systems and software.

By clicking ‘I Agree’ you will allow the use of indicated cookies, device identifiers, web beacons or other similar technologies. Your settings can be changed in the browser on your device.

For certain purposes, legitimate interests may be relied on, rather than consent. You can read more about this in our Privacy and Cookie Policy.